Regional Weather Roundup
Issued by NWS Cleveland, OH

Home | Current Version | Previous Version | Graphics & Text | Print | Product List | Glossary On
Versions: 1 2 3 4 5 6 7 8 9 10 11 12 13 14 15 16 17 18 19 20 21 22 23 24 25 26 27 28 29 30 31 32 33 34 35 36 37 38 39 40 41 42 43 44 45 46 47 48 49 50
000
ASUS41 KCLE 160102
RWRCLE
OHIO REGIONAL WEATHER ROUNDUP
NATIONAL WEATHER SERVICE CLEVELAND, OH
800 PM EST FRI DEC 15 2017

NOTE: "FAIR" INDICATES FEW OR NO CLOUDS BELOW 12,000 FEET WITH NO
SIGNIFICANT WEATHER AND/OR OBSTRUCTIONS TO VISIBILITY.

OHZ001>008-015>018-024>027-034-035-043-044-160200-
   NORTHWEST OHIO

CITY           SKY/WX    TMP DP  RH WIND       PRES   REMARKS
DEFIANCE       CLOUDY    28  17  63 SW8       29.95R WCI  20
FINDLAY        CLOUDY    28  16  60 SW10      29.95S WCI  19
TOLEDO EXPRESS CLOUDY    27  17  66 SW13      29.93R WCI  16
TOLEDO EXEC    CLOUDY    25  16  68 SW9       29.95R WCI  15
LIMA           CLOUDY    28  18  66 SW14      29.97R WCI  17
$$

OHZ009>014-019>023-028>033-038-089-160200-
   NORTHEAST OHIO

CITY           SKY/WX    TMP DP  RH WIND       PRES   REMARKS
CLE-HOPKINS    CLOUDY    27  17  66 W17       29.95R WCI  14
CLE-LAKEFRONT  CLOUDY    28  18  66 SW21G32   29.92R WCI  15
CUY CO. ARPT   FLURRIES  27  19  74 W21G29    29.91R WCI  13
LORAIN-ELYRIA  CLOUDY    25  12  58 W16       29.95R WCI  12
ASHTABULA      LGT SNOW  25  20  81 SW14      29.87R WCI  13
AKRON-CANTON   FLURRIES  26  17  68 W16G25    29.93R WCI  14
WOOSTER        CLOUDY    25  17  72 W15G25    29.95R WCI  13
MANSFIELD      MOCLDY    24  14  65 MISG      29.94R
YOUNGSTOWN     FLURRIES  24  17  74 W14G23    29.90R WCI  12
$$

OHZ042-051>053-060>062-070>072-077>081-160200-
  SOUTHWEST OHIO

CITY           SKY/WX    TMP DP  RH WIND       PRES   REMARKS
CINC-COVINGTON CLOUDY    31  22  69 SW6       30.08R WCI  25
CINC-LUNKEN    CLOUDY    32  22  66 SW7       30.11R WCI  26
HAMILTON       CLEAR     29  21  72 SW3       30.09R
DAYTON         CLOUDY    28  21  75 SW12      30.04R WCI  18
WRIGHT-PAT AFB CLOUDY    29  20  70 SW9       30.04R WCI  20
DAYTON GENERAL PTCLDY    30  20  66 SW10      30.04R WCI  21
WILMINGTON     CLEAR     27  20  75 W10       30.05R WCI  17
$$

OHZ036-037-039>041-045>050-054>059-063>069-073>076-082>088-160200-
  CENTRAL AND SOUTHEAST OHIO

CITY           SKY/WX    TMP DP  RH WIND       PRES   REMARKS
COLUMBUS       CLOUDY    30  19  63 W12       30.03R WCI  20
OSU AIRPORT    CLOUDY    29  20  69 W18       30.02R WCI  16
BOLTON FIELD   NOT AVBL
RICKENBACK AFB CLOUDY    29  20  70 W10       30.05R WCI  20
NEWARK         MOCLDY    30  19  63 SW9       30.02R WCI  22
MARION         NOT AVBL
LANCASTER      MOCLDY    30  19  63 W14       30.04R WCI  19
ZANESVILLE     CLOUDY    30  18  60 W14G23    30.01R WCI  19
NEW PHILLY     NOT AVBL
$$



USA.gov is the U.S. government's official web portal to all federal, state and local government web resources and services.